User: anonymous   Login
Location: Caltech
(34.1382°N, 118.1253°W)
Time: 00:52:13
(UTC-07:00)
Language:

Iridium 91 - Orbit

View from above orbital plane
View from above orbital plane
View from above satellite
View from above satellite

Ground track
Ground track

The orbit data is extracted from the following two-line orbital elements,

1 27372U 02005A   15241.47260164  .00000166  00000-0  52144-4 0  9994
2 27372 086.4000 202.6505 0001950 091.2807 028.7983 14.34217594717353
Epoch (UTC): 29 August 2015 11:20:32
Eccentricity: 0.0001950
inclination: 86.4000°
perigee height: 776 km
apogee height: 779 km
right ascension of ascending node: 202.6505°
argument of perigee: 91.2807°
revolutions per day: 14.34217594
mean anomaly at epoch: 28.7983°
orbit number at epoch: 71735

The dashed part of the orbit path shows where the satellite is in the earth's shadow,  

DLR